Weather History for Escanaba, MI

Change the Weather History Date:

Wednesday, January 29, 2014

  Actual Average Record
Temperature  
Mean Temperature 5 °F -  
Max Temperature 15 °F 24 °F 39 °F (1968)
Min Temperature -5 °F 7 °F -17 °F (1951)
Degree Days  
Heating Degree Days 60    
Moisture  
Dew Point -4 °F    
Average Humidity 65    
Maximum Humidity 79    
Minimum Humidity 45    
Precipitation  
Precipitation 0.00 in - - ()
Sea Level Pressure  
Sea Level Pressure 29.84 in    
Wind  
Wind Speed 11 mph (SW)    
Max Wind Speed 17 mph    
Max Gust Speed 25 mph    
Visibility 10 miles    
Events      
Averages and records for this station are not official NWS values.
T = Trace of Precipitation, MM = Missing Value Source: NWS Daily Summary

Daily Weather History Graph

Daily Weather History Graph

Search for Another Location

Airport:

Trip Planner

Search our weather history database for the weather conditions in past years. The results will help you decide how hot, cold, wet, or windy it might be!

Date:

Astronomy

Jan. 29, 2014 Rise Set
Actual Time 8:13 AM EST 5:50 PM EST
Civil Twilight 7:41 AM EST 6:22 PM EST
Nautical Twilight 7:05 AM EST 6:58 PM EST
Astronomical Twilight 6:30 AM EST 7:33 PM EST
Moon 6:50 AM EST (1/29) 4:49 PM EST (1/29)
Length of Visible Light 10h 40m
Length of Day
9h 36m
Waning Crescent, 2% of the Moon is Illuminated
Jan 29
Waning Crescent
Jan 30
New
Feb 6
First Quarter
Feb 14
Full
Feb 22
Last Quarter

Hourly Weather History & Observations

Time (EST) Temp. Windchill Dew Point Humidity Pressure Visibility Wind Dir Wind Speed Gust Speed Precip Events Conditions
12:15 AM -2.2 °F -21.5 °F -11.2 °F 66% 29.85 in 10.0 mi WSW 13.8 mph 19.6 mph N/A   Mostly Cloudy
12:35 AM -2.2 °F -21.5 °F -13.0 °F 60% 29.85 in 10.0 mi WSW 13.8 mph 18.4 mph N/A   Overcast
12:55 AM -2.2 °F -21.5 °F -9.4 °F 71% 29.84 in 10.0 mi WSW 13.8 mph 18.4 mph N/A   Overcast
1:15 AM -2.2 °F -21.5 °F -11.2 °F 66% 29.83 in 10.0 mi WSW 13.8 mph 19.6 mph N/A   Scattered Clouds
1:35 AM -2.2 °F -20.7 °F -11.2 °F 66% 29.84 in 10.0 mi WSW 12.7 mph 20.7 mph N/A   Partly Cloudy
1:55 AM -0.4 °F -19.2 °F -9.4 °F 66% 29.83 in 10.0 mi WSW 13.8 mph 19.6 mph N/A   Mostly Cloudy
2:15 AM -0.4 °F -17.6 °F -11.2 °F 60% 29.83 in 10.0 mi WSW 11.5 mph 19.6 mph N/A   Mostly Cloudy
2:35 AM -0.4 °F -17.6 °F -9.4 °F 66% 29.82 in 10.0 mi WSW 11.5 mph 20.7 mph N/A   Overcast
2:55 AM -0.4 °F -17.6 °F -9.4 °F 66% 29.83 in 10.0 mi WSW 11.5 mph 19.6 mph N/A   Overcast
3:15 AM -0.4 °F -19.2 °F -9.4 °F 66% 29.82 in 10.0 mi WSW 13.8 mph 19.6 mph N/A   Overcast
3:35 AM -0.4 °F -17.6 °F -11.2 °F 60% 29.83 in 10.0 mi WSW 11.5 mph - N/A   Overcast
3:55 AM -0.4 °F -15.7 °F -9.4 °F 66% 29.82 in 10.0 mi WSW 9.2 mph - N/A   Mostly Cloudy
4:15 AM -0.4 °F -18.4 °F -9.4 °F 66% 29.82 in 10.0 mi WSW 12.7 mph 17.3 mph N/A   Mostly Cloudy
4:35 AM -0.4 °F -16.7 °F -11.2 °F 60% 29.82 in 10.0 mi WSW 10.4 mph - N/A   Overcast
4:55 AM -0.4 °F -16.7 °F -9.4 °F 66% 29.82 in 10.0 mi WSW 10.4 mph - N/A   Overcast
5:15 AM -0.4 °F -16.7 °F -9.4 °F 66% 29.82 in 10.0 mi WSW 10.4 mph - N/A   Overcast
5:35 AM -0.4 °F -14.7 °F -9.4 °F 66% 29.82 in 10.0 mi WSW 8.1 mph - N/A   Overcast
5:55 AM -0.4 °F -13.4 °F -9.4 °F 66% 29.82 in 10.0 mi SW 6.9 mph - N/A   Mostly Cloudy
6:15 AM -2.2 °F -14.2 °F -11.2 °F 66% 29.82 in 10.0 mi SW 5.8 mph - N/A   Mostly Cloudy
6:35 AM -2.2 °F -14.2 °F -9.4 °F 71% 29.82 in 10.0 mi SW 5.8 mph - N/A   Overcast
6:55 AM -2.2 °F -14.2 °F -11.2 °F 66% 29.83 in 10.0 mi SW 5.8 mph - N/A   Overcast
7:15 AM -2.2 °F -12.5 °F -9.4 °F 71% 29.83 in 10.0 mi SSW 4.6 mph - N/A   Scattered Clouds
7:35 AM -2.2 °F -10.4 °F -11.2 °F 66% 29.85 in 10.0 mi SSW 3.5 mph - N/A   Partly Cloudy
7:55 AM -4.0 °F -12.4 °F -11.2 °F 71% 29.86 in 10.0 mi SSW 3.5 mph - N/A   Mostly Cloudy
8:15 AM -5.8 °F -19.9 °F -13.0 °F 71% 29.86 in 10.0 mi SSW 6.9 mph - N/A   Partly Cloudy
8:35 AM -4.0 °F -16.3 °F -9.4 °F 78% 29.86 in 10.0 mi SW 5.8 mph - N/A   Clear
8:55 AM -4.0 °F -19.0 °F -11.2 °F 71% 29.88 in 10.0 mi SSW 8.1 mph - N/A   Scattered Clouds
9:15 AM -2.2 °F -15.6 °F -9.4 °F 71% 29.89 in 10.0 mi SSW 6.9 mph - N/A   Overcast
9:35 AM -2.2 °F -14.2 °F -9.4 °F 71% 29.89 in 10.0 mi SW 5.8 mph - N/A   Mostly Cloudy
9:55 AM -0.4 °F -12.0 °F -9.4 °F 66% 29.89 in 10.0 mi SW 5.8 mph - N/A   Partly Cloudy
10:15 AM 1.4 °F -12.5 °F -7.6 °F 66% 29.89 in 10.0 mi SW 8.1 mph - N/A   Clear
10:35 AM 1.4 °F -6.2 °F -9.4 °F 61% 29.89 in 10.0 mi SSW 3.5 mph - N/A   Clear
10:55 AM 3.2 °F -10.3 °F -7.6 °F 61% 29.90 in 10.0 mi WSW 8.1 mph - N/A   Clear
11:15 AM 3.2 °F -11.3 °F -7.6 °F 61% 29.90 in 10.0 mi West 9.2 mph - N/A   Clear
11:35 AM 5.0 °F -5.6 °F -7.6 °F 56% 29.89 in 10.0 mi WSW 5.8 mph - N/A   Clear
11:55 AM 6.8 °F -7.8 °F -5.8 °F 56% 29.89 in 10.0 mi West 10.4 mph - N/A   Clear
12:15 PM 6.8 °F -6.9 °F -7.6 °F 52% 29.88 in 10.0 mi WSW 9.2 mph - N/A   Clear
12:35 PM 8.6 °F -3.7 °F -5.8 °F 52% 29.88 in 10.0 mi West 8.1 mph - N/A   Clear
12:55 PM 10.4 °F -0.4 °F -5.8 °F 48% 29.87 in 10.0 mi WSW 6.9 mph - N/A   Clear
1:15 PM 10.4 °F -0.4 °F -5.8 °F 48% 29.87 in 10.0 mi WSW 6.9 mph - N/A   Clear
1:35 PM 12.2 °F -0.2 °F -5.8 °F 45% 29.87 in 10.0 mi SW 9.2 mph - N/A   Clear
1:55 PM 12.2 °F 0.7 °F -2.2 °F 53% 29.87 in 10.0 mi South 8.1 mph - N/A   Clear
2:15 PM 10.4 °F -4.1 °F -0.4 °F 62% 29.88 in 10.0 mi SSW 11.5 mph - N/A   Clear
2:35 PM 12.2 °F -2.5 °F -0.4 °F 57% 29.87 in 10.0 mi SSW 12.7 mph - N/A   Clear
2:55 PM 12.2 °F -3.7 °F -0.4 °F 57% 29.86 in 10.0 mi SSW 15.0 mph - N/A   Clear
3:15 PM 14.0 °F 0.5 °F 1.4 °F 57% 29.86 in 10.0 mi SSW 11.5 mph - N/A   Clear
3:35 PM 15.8 °F 1.4 °F 1.4 °F 53% 29.85 in 10.0 mi SSW 13.8 mph - N/A   Clear
3:55 PM 14.0 °F 0.5 °F 3.2 °F 62% 29.84 in 10.0 mi SSW 11.5 mph - N/A   Clear
4:15 PM 12.2 °F -4.8 °F 1.4 °F 62% 29.85 in 10.0 mi SSW 17.3 mph 25.3 mph N/A   Clear
4:35 PM 10.4 °F -4.8 °F 1.4 °F 67% 29.85 in 10.0 mi SSW 12.7 mph 20.7 mph N/A   Clear
4:55 PM 10.4 °F -6.6 °F 1.4 °F 67% 29.84 in 10.0 mi South 16.1 mph - N/A   Clear
5:15 PM 10.4 °F -6.0 °F 1.4 °F 67% 29.84 in 10.0 mi South 15.0 mph 19.6 mph N/A   Clear
5:35 PM 10.4 °F -6.6 °F 1.4 °F 67% 29.83 in 10.0 mi SSW 16.1 mph 21.9 mph N/A   Clear
5:55 PM 10.4 °F -4.8 °F 1.4 °F 67% 29.83 in 10.0 mi South 12.7 mph 21.9 mph N/A   Clear
6:15 PM 10.4 °F -4.8 °F 1.4 °F 67% 29.83 in 10.0 mi SSW 12.7 mph 20.7 mph N/A   Clear
6:35 PM 10.4 °F -5.4 °F 1.4 °F 67% 29.82 in 10.0 mi SSW 13.8 mph 20.7 mph N/A   Clear
6:55 PM 10.4 °F -6.0 °F 3.2 °F 73% 29.82 in 10.0 mi SSW 15.0 mph 19.6 mph N/A   Clear
7:15 PM 10.4 °F -6.6 °F 3.2 °F 73% 29.82 in 10.0 mi SSW 16.1 mph 21.9 mph N/A   Scattered Clouds
7:35 PM 10.4 °F -6.6 °F 3.2 °F 73% 29.82 in 10.0 mi SSW 16.1 mph 23.0 mph N/A   Partly Cloudy
7:55 PM 10.4 °F -6.0 °F 3.2 °F 73% 29.81 in 10.0 mi SSW 15.0 mph 21.9 mph N/A   Partly Cloudy
8:15 PM 10.4 °F -6.0 °F 3.2 °F 73% 29.81 in 10.0 mi SSW 15.0 mph 24.2 mph N/A   Scattered Clouds
8:35 PM 12.2 °F -3.1 °F 3.2 °F 67% 29.81 in 10.0 mi SSW 13.8 mph 19.6 mph N/A   Scattered Clouds
8:55 PM 12.2 °F -3.1 °F 3.2 °F 67% 29.80 in 10.0 mi SSW 13.8 mph - N/A   Partly Cloudy
9:15 PM 12.2 °F -3.7 °F 3.2 °F 67% 29.79 in 10.0 mi SSW 15.0 mph 23.0 mph N/A   Partly Cloudy
9:35 PM 12.2 °F -3.1 °F 5.0 °F 73% 29.78 in 10.0 mi SSW 13.8 mph 25.3 mph N/A   Scattered Clouds
9:55 PM 12.2 °F -4.3 °F 3.2 °F 67% 29.78 in 10.0 mi SSW 16.1 mph - N/A   Overcast
10:15 PM 10.4 °F -5.4 °F 3.2 °F 73% 29.78 in 10.0 mi SSW 13.8 mph 20.7 mph N/A   Overcast
10:35 PM 12.2 °F -3.7 °F 3.2 °F 67% 29.78 in 10.0 mi SSW 15.0 mph 24.2 mph N/A   Mostly Cloudy
10:55 PM 12.2 °F -2.5 °F 5.0 °F 73% 29.77 in 10.0 mi SSW 12.7 mph 19.6 mph N/A   Overcast
11:15 PM 12.2 °F -2.5 °F 5.0 °F 73% 29.76 in 10.0 mi SSW 12.7 mph 19.6 mph N/A   Overcast
11:35 PM 12.2 °F -3.7 °F 6.8 °F 79% 29.74 in 10.0 mi SSW 15.0 mph 20.7 mph N/A   Overcast
11:55 PM 14.0 °F -1.4 °F 6.8 °F 73% 29.73 in 10.0 mi SSW 15.0 mph 20.7 mph N/A   Overcast